Regional Weather Roundup
Issued by NWS

Home | Current Version | Previous Version | Text Only | Print | Product List | Glossary Off
Versions: 1 2 3 4 5 6 7 8 9 10 11 12 13 14 15 16 17 18 19 20 21 22 23 24 25 26 27 28 29 30 31 32 33 34 35 36 37 38 39 40 41 42 43 44 45 46 47 48 49 50

000
ASUS43 KDTX 020810
RWRMI
MICHIGAN HOURLY REGIONAL WEATHER ROUNDUP
NATIONAL WEATHER SERVICE DETROIT/PONTIAC MI
400 AM EDT TUE SEP 02 2014

NOTE: "FAIR" INDICATES FEW OR NO CLOUDS BELOW 12,000 FEET WITH NO
SIGNIFICANT WEATHER AND/OR OBSTRUCTION TO VISIBILITY.

MIZ047>049-052>055-059>063-066>070-074>076-081>083-020900-
SOUTHEAST LOWER MICHIGAN

CITY           SKY/WX    TMP DP  RH WIND       PRES   REMARKS
ADRIAN         PTCLDY    68  65  90 W5        29.89R
ALMA           MOCLDY    68  65  92 SW6       29.83R
BAD AXE        MOCLDY    66  66 100 SW5       29.82S
DETROIT CITY   CLEAR     73  67  81 SW10      29.86R
DETROIT        CLEAR     71  68  90 SW14      29.87R
FLINT          CLOUDY    72  66  81 SW8       29.85R
GROSSE ILE     CLEAR     72  66  83 SW6       29.86R
HILLSDALE      CLOUDY    70  68  93 SW3       29.89F
HOWELL         MOCLDY    68  67  95 SW7       29.86R

CITY           SKY/WX    TMP DP  RH WIND       PRES   REMARKS
JACKSON        CLOUDY    70  65  84 SW7       29.86
LAMBERTVILLE   CLEAR     72  64  78 SW9       29.88F
LANSING        CLOUDY    70  65  84 SW9       29.85R
LAPEER         NOT AVBL
MASON          CLOUDY    69  66  92 CALM      29.86S
MONROE         CLEAR     72  64  78 SW9       29.86F
MT. CLEMENS    CLEAR     71  70  95 SW8       29.84R
PONTIAC        CLOUDY    70  67  90 SW6       29.85R
PORT HOPE        N/A     68  65  90 SW5       29.78R
PORT HURON     CLEAR     68  68 100 SW3       29.84R FOG
TRI CITIES     CLOUDY    69  66  90 SW6       29.82R
YPSILANTI      PTCLDY    73  67  81 SW12      29.87R
$$
MIZ043>046-050>051-056>058-064>065-071>073-077>080-020900-
SOUTHWEST LOWER MICHIGAN

CITY           SKY/WX    TMP DP  RH WIND       PRES   REMARKS
BATTLE CREEK   CLOUDY    70  66  87 SW7       29.87F
BENTON HARBOR  CLOUDY    70  67  90 VRB5      29.84F
BIG RAPIDS     MOCLDY    64  64 100 W3        29.82S
COLDWATER      CLOUDY    70  67  91 SW5       29.88F
HOLLAND        MOCLDY    70  65  84 NW3       29.85S
GRAND RAPIDS   MOCLDY    70  68  93 W6        29.84S
KALAMAZOO      CLOUDY    71  65  81 SW5       29.86F
MARSHALL       CLOUDY    69  66  89 SW6       29.86F
MUSKEGON       MOCLDY    69  63  81 W3        29.84S
$$
MIZ016>042-020900-
NORTHERN LOWER MICHIGAN

CITY           SKY/WX    TMP DP  RH WIND       PRES   REMARKS
BEAVER ISLAND  CLEAR     62  61  97 CALM      29.77S
BELLAIRE       FOG       63  61  95 CALM      29.78S VSB 1/2
CADILLAC       MOCLDY    61  61 100 SW3       29.82S
CHARLEVOIX     PTCLDY    64  62  93 SW3       29.80S
FRANKFORT      MOSUNNY   65  60  83 CALM      29.80S
GAYLORD        MOCLDY    63  62  97 W3        29.80R
GRAYLING       CLOUDY    64  64 100 W3        29.82R FOG
HARBOR SPRINGS PTCLDY    64  61  89 CALM      29.77S
HOUGHTON LAKE  CLEAR     65  64  97 W7        29.81S
MANISTEE       PTCLDY    64  61  88 W6        29.82S
OSCODA         CLEAR     64  64  97 SW6       29.78R
PELLSTON       PTCLDY    62  60  93 W3        29.77S
TRAVERSE CITY  PTCLDY    63  61  93 CALM      29.78S
$$
MIZ007>008-015-020900-
EASTERN UPPER MICHIGAN

CITY           SKY/WX    TMP DP  RH WIND       PRES   REMARKS
KINROSS        MOCLDY    59  57  94 SW3       29.75S
MACKINAC ISLAN CLEAR     62  62 100 SW10      29.76S
NEWBERRY       CLEAR     57  56  96 SW7       29.74S
S. S. MARIE    CLOUDY    61  58  90 W6        29.73R
$$
MIZ004>006-011>014-085-020900-
CENTRAL UPPER MICHIGAN

CITY           SKY/WX    TMP DP  RH WIND       PRES   REMARKS
MANISTIQUE     CLEAR     60  58  91 W3        29.75S
ESCANABA       CLEAR     55  52  88 W5        29.76F
MENOMINEE      CLEAR     57  54  88 CALM      29.78F
SAWYER-GWINN   CLEAR     55  53  94 W3        29.76F
$$
MIZ001>003-009>011-084-020900-
WESTERN UPPER MICHIGAN

CITY           SKY/WX    TMP DP  RH WIND       PRES   REMARKS
IRON MOUNTAIN  CLEAR     53  51  93 CALM      29.79S
HOUGHTON       CLEAR     56  53  90 W7        29.74R
COPPER HARBOR    N/A     61  54  77 VRB7      29.71R
$$

ABBREVIATIONS USED IN REMARKS
   TC - TEMPERATURE IN CELSIUS
  WCI - WIND CHILL INDEX
   HX - HEAT INDEX
  VSB - VISIBILITY




USA.gov is the U.S. government's official web portal to all federal, state and local government web resources and services.